[Iaude] MPEC Q63: 2020 QP [a=1.06,e=0.51,i=40.7,H=23.9]

mpec at marsden.cfa.harvard.edu mpec at marsden.cfa.harvard.edu
Tue Aug 18 07:58:31 EDT 2020


M.P.E.C. 2020-Q63                               Issued 2020 August 18, 11:57 UT

     The Minor Planet Electronic Circulars contain information on unusual
         minor planets and routine data on comets.  They are published
    on behalf of Division F of the International Astronomical Union by the
          Minor Planet Center, Smithsonian Astrophysical Observatory,
                          Cambridge, MA 02138, U.S.A.

             Prepared using the Tamkin Foundation Computer Network

                              MPC at CFA.HARVARD.EDU
            URL https://www.minorplanetcenter.net/    ISSN 1523-6714

                                    2020 QP                                     


Observations:
     K20Q00P  C2020 08 10.42075 23 18 59.77 +23 44 18.0          21.6 GVEQ063G96
     K20Q00P  C2020 08 10.42594 23 19 00.50 +23 43 56.1                VEQ063G96
     K20Q00P  C2020 08 10.43112 23 19 01.16 +23 43 34.4          21.4 GVEQ063G96
     K20Q00P* C2020 08 17.47871623 55 42.190+03 11 04.58         20.05wUEQ063F51
     K20Q00P  C2020 08 17.49014223 55 49.103+03 06 23.23         19.54wUEQ063F51
     K20Q00P  C2020 08 17.50154323 55 56.024+03 01 41.05         19.00GVEQ063F51
     K20Q00P  C2020 08 17.51319323 56 03.121+02 56 51.40               VEQ063F51
     K20Q00P  C2020 08 18.06032 00 02 37.97 -01 13 49.2          19.3 VVEQ063033
     K20Q00P  C2020 08 18.06096 00 02 38.45 -01 14 08.4          19.3 VVEQ063033
     K20Q00P  C2020 08 18.06160 00 02 38.93 -01 14 27.6          19.2 VVEQ063033
     K20Q00P  C2020 08 18.35002 00 06 42.01 -03 45 51.2                VEQ063G96
     K20Q00P  C2020 08 18.35635 00 06 47.28 -03 49 22.6          19.4 GVEQ063G96
     K20Q00P  C2020 08 18.36393 00 06 53.54 -03 53 33.9          19.3 GVEQ063G96
     K20Q00P  C2020 08 18.36912 00 06 57.85 -03 56 27.7          19.4 GVEQ063G96

Observer details:
033 Karl Schwarzschild Observatory, Tautenburg.  Observers S. Melnikov, F.
    Ludwig, B. Stecklum.  Measurer B. Stecklum.  1.34-m f/3 Schmidt + CCD.
F51 Pan-STARRS 1, Haleakala.  Observers J. Bulger, T. Lowe, A. Schultz, M.
    Willman, K. Chambers.  Measurers K. Chambers, S. Chastel, T. de Boer, L.
    Denneau, J. Fairlamb, H. Flewelling, M. Huber, C.-C. Lin, E. Magnier, Y.
    Ramanjooloo, R. Wainscoat, R. Weryk.  1.8-m Ritchey-Chretien + CCD.
G96 Mt. Lemmon Survey.  Observers T. A. Pruyne, H. Groeller.  Measurers B.
    Gray, D. Rankin, F. C. Shelly, E. J. Christensen, G. A. Farneth, D. C.
    Fuls, A. R. Gibbs, A. D. Grauer, H. Groeller, R. A. Kowalski, S. M.
    Larson, G. J. Leonard, T. A. Pruyne, R. L. Seaman, K. W. Wierzchos.  1.5-m
    reflector + 10K CCD.

Orbital elements:
2020 QP                                                  Earth MOID = 0.0391 AU
Epoch 2020 May 31.0 TT = JDT 2459000.5                  Veres
M 227.71168              (2000.0)            P               Q
n   0.90234911     Peri.  301.12447     -0.08153201     -0.93151288
a   1.0606033      Node   147.09390     +0.97952290     -0.00920466
e   0.5117160      Incl.   40.72652     -0.18408537     +0.36359186
P   1.09           H   23.9           G   0.15           U   8
Residuals in seconds of arc
200810 G96  0.2-  0.5+    200817 F51  0.0   0.1+    200818 G96  0.1-  0.0
200810 G96  0.3+  0.1-    200817 F51  0.1+  0.1-    200818 G96  0.4+  0.8-
200810 G96  0.0   0.4-    200818 033  0.1-  0.1-    200818 G96  0.0   0.7+
200817 F51  0.0   0.1-    200818 033  0.1-  0.1-    200818 G96  0.0   0.4+
200817 F51  0.1-  0.2+    200818 033  0.1-  0.1-

Ephemeris:
2020 QP                  a,e,i = 1.06, 0.51, 41                  q = 0.5179
Date    TT    R. A. (2000) Decl.     Delta      r    Elong.  Phase     V
2020 07 19    22 50 47.1 +30 10 23   0.4820  1.2875   113.6    46.3    24.6
...
2020 08 03    23 05 52.3 +28 30 00   0.2656  1.1836   123.9    45.4    23.1
...
2020 08 11    23 20 32.6 +23 02 42   0.1524  1.1216   132.2    42.0    21.7
...
2020 08 17    23 50 48.7 +06 13 16   0.07324 1.0721   143.4    34.3    19.8
2020 08 18    00 01 50.1 -00 41 41   0.06193 1.0637   145.1    33.0    19.4
2020 08 19    00 17 23.8 -10 26 35   0.05213 1.0551   144.8    33.6    19.0
...
2020 08 25    07 57 37.7 -65 58 07   0.06745 1.0023    80.9    95.3    21.5
...
2020 09 02    10 12 42.2 -49 13 15   0.1714  0.9284    57.6   113.4    24.3
...
2020 09 17    10 38 29.5 -40 08 19   0.3797  0.7817    44.6   115.4    25.8

M. P. C. Staff               (C) Copyright 2020 MPC           M.P.E.C. 2020-Q63




More information about the Iaude mailing list